Theta_e
317 317 317 317 317 317 317 317 318 318 319 319 320 321 322 322 321 315 303 312 316 332 331 312 311 308 308 304 304 299 292 288 290 294 299 303 301 307 313 328 327 330 329 335 342
317 317 317 317 317 317 317 317 318 318 318 319 320 321 321 321 311 305 319 332 333 337 311 309 304 306 301 301 300 297 289 292 298 299 300 301 301 303 306 308 326 328 338 341 340
316 316 316 316 317 316 316 317 317 318 318 319 320 321 321 319 309 313 336 334 339 334 311 309 308 304 298 297 298 294 294 298 302 302 302 301 303 305 303 301 323 328 332 336 339
316 316 316 316 316 316 316 316 317 317 318 318 320 320 320 315 301 314 344 334 341 318 309 306 304 298 295 296 297 297 300 300 303 304 300 300 303 304 302 313 329 335 337 337 338
315 315 315 316 316 316 316 316 316 317 317 318 318 320 315 306 305 322 342 339 325 312 307 305 301 299 295 297 297 296 301 302 304 302 300 302 301 302 303 329 334 336 332 329 327
315 315 315 315 316 316 316 316 316 317 317 317 318 320 308 296 314 328 322 315 311 308 309 305 304 302 298 298 298 302 302 304 302 302 300 299 301 301 304 329 330 332 329 326 325
315 315 315 316 316 317 316 316 315 316 317 318 319 318 312 303 316 320 315 311 310 310 307 309 309 305 304 303 303 304 301 303 301 301 301 302 301 301 305 324 323 325 325 327 326
314 314 314 315 316 317 317 316 316 320 319 319 320 314 301 316 315 315 312 311 313 312 310 311 308 305 303 304 304 300 297 293 300 304 306 302 296 304 305 304 317 319 321 323 324
313 313 313 315 315 316 316 315 320 321 320 321 312 311 304 321 313 315 314 312 312 312 311 316 308 304 305 297 294 295 292 294 298 303 303 301 298 304 305 303 303 315 318 320 326
313 312 312 313 314 315 314 315 320 319 318 318 315 304 309 311 314 316 316 315 312 311 309 306 301 298 296 294 288 292 292 294 295 301 300 298 298 302 303 303 303 304 313 321 326
312 312 312 312 313 313 310 312 306 308 310 304 305 308 314 319 317 313 316 314 313 308 299 302 296 293 297 298 299 298 297 296 300 303 300 299 298 301 303 302 301 301 319 320 324
312 312 312 312 312 312 307 309 308 305 298 312 311 310 315 316 311 312 313 307 306 300 302 298 294 300 302 302 300 299 296 296 299 303 299 299 299 301 303 302 302 303 317 319 321
310 310 311 311 311 308 308 312 312 310 300 306 310 310 311 314 311 310 311 307 304 300 300 296 300 305 302 300 299 299 296 297 297 301 300 299 298 298 303 304 309 307 318 321 322
310 310 310 310 307 307 306 310 308 311 295 303 306 309 309 309 306 311 313 307 302 299 299 298 304 303 302 300 300 294 302 302 300 296 290 297 289 295 298 306 308 309 313 317 320
309 310 310 310 303 305 311 308 309 310 291 311 307 317 313 307 310 310 312 307 301 301 300 297 299 299 298 299 303 298 303 300 300 295 291 293 290 291 303 302 303 307 310 315 319
308 309 310 308 303 310 310 306 309 299 292 303 310 309 307 308 309 310 308 309 308 302 301 301 305 303 301 304 304 304 300 298 295 291 286 292 290 291 298 302 304 307 310 314 315
308 308 307 309 302 307 305 307 296 291 307 302 304 307 305 305 306 308 306 302 298 293 292 298 300 303 308 301 304 301 293 287 286 286 285 296 293 293 303 306 306 306 308 310 313
306 306 308 311 307 307 305 300 289 301 303 304 303 303 301 303 302 303 301 298 302 299 294 292 292 301 306 302 297 297 294 288 283 284 287 295 289 295 305 310 309 309 309 311 312
305 302 307 312 311 305 300 290 293 302 304 302 301 297 296 301 300 300 298 297 300 301 295 293 295 304 307 306 302 297 292 297 291 291 287 290 295 301 305 306 308 309 309 309 310
296 300 307 312 309 303 294 292 296 307 306 303 296 298 293 296 297 295 296 301 301 305 301 298 292 301 303 304 303 299 301 291 290 282 283 288 290 291 296 301 305 305 307 309 311
298 299 308 309 307 298 289 292 301 307 306 301 297 296 296 296 296 294 296 300 303 303 302 297 294 295 299 295 292 292 292 293 292 290 283 282 286 297 297 301 303 305 307 307 308
294 294 307 308 296 294 293 299 302 304 304 302 301 298 296 297 295 295 295 299 303 302 296 297 292 288 293 297 298 295 295 293 285 285 286 284 285 302 300 301 303 304 307 306 309
290 294 307 305 291 291 295 299 303 300 300 300 299 300 300 295 291 297 299 304 302 302 296 295 288 283 287 291 297 294 295 295 291 287 285 281 284 301 301 302 304 303 304 305 307
293 293 296 298 296 291 291 293 295 302 301 302 299 300 296 294 295 294 297 302 304 303 309 301 290 288 283 287 291 292 295 296 291 284 285 286 288 296 300 301 301 302 303 304 307
296 291 292 287 290 290 291 294 294 294 300 300 297 298 295 290 293 294 297 299 303 306 302 294 288 290 291 293 293 292 292 293 292 291 286 290 290 294 298 300 302 302 303 304 306
289 289 291 289 290 289 290 289 292 293 293 292 293 296 294 289 293 291 294 294 294 298 295 293 287 289 289 294 294 292 293 293 292 293 293 292 290 293 296 297 301 302 303 303 305
292 293 290 289 287 286 287 290 290 293 294 296 295 292 291 294 296 294 295 296 296 293 293 291 288 286 283 292 292 286 292 292 291 292 291 286 290 294 295 297 297 299 304 301 305
Wind_Speed
16 15 14 13 12 12 11 10 10 9 8 8 7 7 7 8 9 2 6 12 8 7 2 1 2 3 4 3 3 3 3 5 4 3 10 13 10 10 5 6 4 5 4 4 12
17 16 15 14 13 12 11 11 10 9 8 7 6 6 7 7 2 7 13 11 12 10 4 6 4 2 1 3 3 5 4 8 8 4 9 9 7 5 8 2 7 8 9 11 16
18 17 16 15 13 12 11 11 10 9 8 6 6 5 5 4 3 9 6 15 7 17 6 3 4 2 2 1 3 2 6 8 13 11 8 5 9 5 4 6 4 13 8 4 6
19 18 17 15 14 12 11 11 10 8 7 5 4 4 5 2 2 4 2 16 8 6 3 3 1 3 4 5 4 2 8 7 14 11 5 5 3 7 4 3 13 17 16 8 11
19 19 18 16 14 12 11 11 9 8 5 3 2 2 2 1 10 1 10 11 7 7 6 5 4 5 5 5 1 6 10 9 15 11 7 5 4 5 1 7 9 13 8 13 13
20 19 18 17 14 12 10 9 8 6 4 3 3 3 1 3 3 9 10 8 5 6 6 7 6 3 5 4 5 5 5 9 9 8 4 2 6 4 2 12 11 14 16 14 12
20 20 19 17 15 11 8 8 7 5 3 5 6 3 1 14 2 7 9 7 5 6 5 5 3 3 5 8 2 5 7 10 4 3 6 3 11 7 9 14 13 14 13 12 14
21 21 19 18 15 12 8 7 6 3 5 6 6 2 8 5 5 7 3 3 5 6 5 9 4 7 4 3 9 6 4 5 7 8 10 6 11 16 11 8 16 14 13 13 8
23 21 19 18 16 13 9 6 3 7 5 8 3 1 10 4 7 10 8 6 6 6 6 10 2 2 7 5 7 7 4 5 13 4 7 5 12 12 12 9 10 15 15 13 4
25 23 21 19 17 14 12 3 4 6 4 5 5 4 6 4 6 8 8 6 5 2 5 1 6 3 5 6 5 6 4 5 6 11 5 6 7 8 10 5 11 8 11 8 8
28 26 24 20 16 12 5 3 3 1 3 8 7 6 5 5 4 6 10 5 2 3 5 2 1 5 10 8 9 5 7 11 14 11 3 7 6 9 10 8 9 5 11 11 6
28 28 26 25 18 12 2 1 6 7 8 13 13 12 15 3 5 5 9 7 5 5 1 4 6 12 8 9 7 8 9 11 9 7 3 7 10 5 6 8 7 9 13 11 6
27 28 28 28 24 3 3 6 7 6 3 8 9 8 10 10 9 10 11 7 5 4 5 8 12 5 6 11 11 14 6 7 9 5 4 7 11 8 10 11 23 2 11 15 19
28 27 26 30 2 4 3 5 4 5 5 9 5 7 5 6 4 9 11 9 3 10 6 8 13 8 12 9 7 9 13 17 11 3 5 3 10 6 8 20 25 23 13 13 10
31 26 24 9 3 1 6 9 4 7 4 2 4 6 8 8 4 3 6 4 10 9 7 11 5 10 8 8 4 10 6 5 6 5 5 1 3 2 13 16 24 25 10 9 9
34 29 19 3 1 7 8 6 6 6 5 3 5 6 5 4 4 1 5 4 6 6 4 10 5 5 8 8 8 6 3 6 5 3 5 4 1 5 6 5 17 21 26 21 21
35 32 10 2 4 5 6 5 6 3 7 1 4 5 6 4 4 5 5 6 7 3 4 5 10 6 2 4 8 9 6 5 6 5 5 1 4 4 1 5 15 18 22 21 18
37 25 4 5 5 6 5 6 3 4 4 4 6 5 2 1 3 3 4 5 4 3 5 5 8 3 3 5 4 2 5 6 5 4 5 4 4 4 6 4 6 16 18 16 18
28 6 3 5 3 4 8 4 6 2 4 5 6 2 4 5 3 7 6 6 6 9 9 6 5 2 4 3 7 2 1 3 6 3 3 3 2 3 7 10 12 9 15 17 14
5 5 5 5 4 6 6 5 4 2 3 4 0 4 3 6 6 6 4 4 5 3 3 5 2 2 2 4 7 5 2 3 4 1 5 5 4 5 6 4 5 8 11 11 10
4 6 5 7 5 7 4 6 5 13 1 2 2 2 0 2 1 2 4 5 4 6 5 2 5 6 4 2 4 4 4 7 5 3 6 3 6 5 7 5 7 6 7 6 9
5 3 5 5 5 2 2 7 8 7 10 5 1 4 3 2 4 4 7 2 6 1 1 1 5 3 5 3 2 4 5 6 7 4 2 3 8 6 8 8 7 8 8 6 6
4 5 6 5 4 4 8 5 4 9 7 6 5 5 3 3 2 4 3 4 7 2 5 4 0 2 8 8 4 4 4 5 6 4 7 7 7 7 7 8 8 10 8 7 6
3 6 7 6 3 3 5 5 6 8 6 3 5 5 5 4 6 5 4 5 7 5 7 7 5 8 9 8 5 3 5 5 7 5 6 7 6 7 12 14 9 7 8 9 8
3 2 1 6 4 6 2 4 6 7 5 8 4 4 3 4 6 5 4 5 5 3 0 4 8 6 6 5 5 6 7 8 8 8 9 11 13 15 18 19 18 13 9 9 9
3 4 6 5 4 5 5 4 6 12 7 9 7 8 2 2 3 5 5 2 5 7 5 1 4 4 3 4 6 8 7 8 7 8 10 9 9 5 11 7 13 12 10 8 11
4 4 3 5 5 3 4 5 13 12 10 10 11 8 5 5 5 6 6 5 6 2 2 3 6 3 5 3 5 8 9 6 4 3 5 5 3 2 11 12 8 8 11 8 9
Wind_Direction
355 351 347 343 339 337 333 327 322 320 318 319 322 320 318 321 304 149 243 222 187 179 2 65 194 258 44 280 194 104 46 258 261 21 286 301 2 316 44 101 354 8 117 197 135
353 348 344 340 335 331 327 324 321 318 316 317 322 321 324 334 300 245 236 200 217 154 181 169 204 151 341 255 317 109 130 246 186 233 262 297 328 295 4 147 59 70 61 107 131
351 347 343 337 332 328 324 319 316 317 315 317 321 320 317 323 324 251 211 198 199 174 192 151 58 51 235 58 246 213 205 248 278 248 243 267 303 308 29 16 160 149 135 117 117
351 348 344 337 330 325 319 316 315 312 312 313 313 317 327 231 244 284 301 185 156 152 99 174 264 174 227 222 219 218 252 241 269 272 278 238 262 323 65 232 152 150 150 155 178
349 348 345 339 332 325 317 314 310 306 302 287 281 310 319 5 251 209 112 136 135 140 195 171 189 192 191 215 317 198 265 272 261 260 248 272 256 248 93 144 155 153 174 171 175
350 348 345 342 338 330 318 307 302 297 279 231 195 148 52 289 231 143 126 133 168 168 188 164 214 192 275 235 159 279 269 268 289 263 250 264 281 119 254 149 164 174 195 198 216
352 349 347 344 341 338 327 318 314 298 240 192 178 205 229 238 246 153 141 172 184 187 198 213 172 147 307 309 186 299 334 326 272 284 286 14 325 276 242 164 180 203 214 227 229
353 351 348 345 342 338 337 334 322 282 164 167 174 258 248 251 134 136 211 206 221 227 214 255 189 232 212 275 355 359 26 5 295 340 290 99 274 267 253 203 193 211 219 222 240
351 351 347 344 341 336 330 342 52 120 142 155 145 151 268 308 170 197 167 186 203 245 246 275 269 141 13 57 360 1 275 308 311 250 267 173 273 272 250 214 236 198 210 218 204
350 348 345 343 338 324 320 211 59 123 159 212 260 337 279 247 175 185 199 204 176 256 321 28 43 45 18 71 231 253 296 292 273 299 164 285 268 297 303 269 225 196 200 167 190
345 345 341 341 335 321 342 106 19 1 234 201 197 251 277 293 123 182 182 198 210 127 166 282 71 232 235 222 229 237 262 262 278 271 282 295 286 301 306 309 268 113 138 137 162
343 340 337 334 334 314 203 140 220 201 294 226 234 231 256 296 303 230 124 161 165 230 163 360 246 240 230 252 237 250 252 267 268 252 304 309 296 314 326 292 262 156 149 149 148
340 338 334 330 327 132 177 238 301 93 330 282 209 213 229 151 214 230 149 170 168 207 212 199 242 273 211 260 262 269 242 257 241 279 345 344 313 349 317 19 353 151 155 157 160
337 336 332 326 38 307 259 276 303 92 49 277 197 241 166 196 255 201 171 146 190 199 211 236 262 244 272 255 233 245 256 252 256 278 269 88 289 340 7 14 12 356 326 157 155
334 335 331 323 279 347 257 323 346 56 358 178 174 164 148 144 191 260 144 98 177 206 131 243 263 282 277 241 235 232 264 258 272 271 97 327 304 336 41 3 0 346 308 342 35
332 330 335 118 234 245 314 315 55 47 274 246 150 178 124 215 244 206 153 125 177 192 214 240 233 213 233 279 272 273 305 31 35 69 56 325 53 37 23 346 9 14 25 29 8
332 326 319 267 222 317 337 42 50 151 312 322 224 168 178 207 272 161 201 194 182 154 270 284 275 277 117 27 359 46 53 350 337 345 211 287 54 131 146 72 82 55 35 22 19
330 320 228 229 266 359 47 50 163 267 294 34 353 20 160 32 291 278 182 202 255 173 185 197 296 256 179 151 187 72 133 153 238 232 260 7 226 150 111 129 75 90 77 32 22
326 334 326 270 254 67 66 68 216 276 329 357 350 4 318 33 327 20 222 200 220 182 181 187 239 41 93 153 129 287 7 177 105 334 43 245 308 193 91 62 54 53 86 83 29
334 335 282 278 110 64 73 236 259 327 26 14 312 40 18 323 20 40 313 42 299 54 144 192 161 323 63 53 20 90 129 59 17 201 272 281 261 237 358 34 82 83 81 84 101
18 14 266 353 61 54 162 232 318 324 339 114 170 308 55 333 278 317 263 318 15 352 25 94 121 277 44 95 148 1 65 52 108 130 187 270 252 208 197 206 170 149 126 110 109
353 5 303 17 48 56 41 317 326 343 357 333 311 217 217 341 284 258 216 252 330 184 149 291 136 177 202 254 221 114 131 142 130 222 229 151 267 189 193 201 174 169 153 133 127
349 278 310 64 64 3 320 311 299 27 346 351 322 24 262 184 317 256 290 283 246 148 195 197 99 59 346 353 11 116 144 123 108 84 193 151 262 188 197 216 212 167 158 149 147
12 346 330 28 74 52 356 290 340 327 287 320 281 288 309 274 197 252 285 294 314 207 194 111 158 164 192 199 162 189 191 170 133 138 195 214 236 208 215 213 213 198 174 169 170
37 311 18 321 333 331 271 273 309 336 349 312 330 47 31 303 306 298 344 336 327 326 287 134 202 197 213 202 226 227 227 204 191 205 170 225 223 238 210 208 202 187 185 173 190
36 20 341 292 300 349 323 302 344 336 346 301 333 331 66 264 317 331 336 337 255 345 341 1 264 181 249 228 244 254 242 239 233 221 233 268 270 325 248 119 149 177 184 183 218
323 338 103 285 325 8 253 8 323 345 305 1 327 319 309 294 237 222 224 241 242 261 296 248 163 133 245 249 315 287 215 213 230 238 170 170 201 145 81 99 118 140 155 184 193